owner,sensor,date,latitude,longitude,vertical_datum,wind_speed,wind_to_direction,wind_speed_of_gust,qcFlag 
COMPS,ioos:station:USF.COMPS:FHP:1,2016-03-01T00:00:00Z,28.1530,-82.8010,10.0,4.24,347.07,4.99,'1111122,1111122,1111122' 
COMPS,ioos:station:USF.COMPS:FHP:1,2016-03-01T00:06:00Z,28.1530,-82.8010,10.0,4.03,349.47,4.5,'1111122,1111122,1111122' 
COMPS,ioos:station:USF.COMPS:FHP:1,2016-03-01T00:12:00Z,28.1530,-82.8010,10.0,4.2,353.69,4.7,'1111122,1111122,1111122' 
COMPS,ioos:station:USF.COMPS:FHP:1,2016-03-01T00:18:00Z,28.1530,-82.8010,10.0,4.53,354.47,5.19,'1111122,1111122,1111122' 
COMPS,ioos:station:USF.COMPS:FHP:1,2016-03-01T00:24:00Z,28.1530,-82.8010,10.0,5.11,352.97,5.48,'1111122,1111122,1111122' 
COMPS,ioos:station:USF.COMPS:FHP:1,2016-03-01T00:30:00Z,28.1530,-82.8010,10.0,4.98,356.95,5.39,'1111122,1111122,1111122' 
COMPS,ioos:station:USF.COMPS:FHP:1,2016-03-01T00:36:00Z,28.1530,-82.8010,10.0,4.86,359.72,5.29,'1111122,1111122,1111122' 
COMPS,ioos:station:USF.COMPS:FHP:1,2016-03-01T00:42:00Z,28.1530,-82.8010,10.0,5.13,1.1,5.78,'1111122,1111122,1111122' 
COMPS,ioos:station:USF.COMPS:FHP:1,2016-03-01T00:48:00Z,28.1530,-82.8010,10.0,4.96,1.03,5.68,'1111122,1111122,1111122' 
COMPS,ioos:station:USF.COMPS:FHP:1,2016-03-01T00:54:00Z,28.1530,-82.8010,10.0,4.17,351.97,4.9,'1111122,1111122,1111122' 
COMPS,ioos:station:USF.COMPS:FHP:1,2016-03-01T01:00:00Z,28.1530,-82.8010,10.0,4.5,351.14,5.58,'1111122,1111122,1111122' 
COMPS,ioos:station:USF.COMPS:FHP:1,2016-03-01T01:06:00Z,28.1530,-82.8010,10.0,5.23,359.81,5.58,'1111122,1111122,1111122' 
COMPS,ioos:station:USF.COMPS:FHP:1,2016-03-01T01:12:00Z,28.1530,-82.8010,10.0,5.12,1.65,5.58,'1111122,1111122,1111122' 
COMPS,ioos:station:USF.COMPS:FHP:1,2016-03-01T01:18:00Z,28.1530,-82.8010,10.0,5.16,0.95,5.58,'1111122,1111122,1111122' 
COMPS,ioos:station:USF.COMPS:FHP:1,2016-03-01T01:24:00Z,28.1530,-82.8010,10.0,5.17,4.44,5.78,'1111122,1111122,1111122' 
COMPS,ioos:station:USF.COMPS:FHP:1,2016-03-01T01:30:00Z,28.1530,-82.8010,10.0,4.88,4.53,5.39,'1111122,1111122,1111122' 
COMPS,ioos:station:USF.COMPS:FHP:1,2016-03-01T01:36:00Z,28.1530,-82.8010,10.0,4.98,5.73,5.58,'1111122,1111122,1111122' 
COMPS,ioos:station:USF.COMPS:FHP:1,2016-03-01T01:42:00Z,28.1530,-82.8010,10.0,4.76,5.68,5.29,'1111122,1111122,1111122' 
COMPS,ioos:station:USF.COMPS:FHP:1,2016-03-01T01:48:00Z,28.1530,-82.8010,10.0,4.86,8.0,5.39,'1111122,1111122,1111122' 
COMPS,ioos:station:USF.COMPS:FHP:1,2016-03-01T01:54:00Z,28.1530,-82.8010,10.0,4.84,8.49,5.48,'1111122,1111122,1111122' 
COMPS,ioos:station:USF.COMPS:FHP:1,2016-03-01T02:00:00Z,28.1530,-82.8010,10.0,4.67,8.23,5.19,'1111122,1111122,1111122' 
COMPS,ioos:station:USF.COMPS:FHP:1,2016-03-01T02:06:00Z,28.1530,-82.8010,10.0,4.18,10.1,4.7,'1111122,1111122,1111122' 
COMPS,ioos:station:USF.COMPS:FHP:1,2016-03-01T02:12:00Z,28.1530,-82.8010,10.0,3.78,8.46,4.31,'1111122,1111122,1111122' 
COMPS,ioos:station:USF.COMPS:FHP:1,2016-03-01T02:18:00Z,28.1530,-82.8010,10.0,3.86,9.31,4.31,'1111122,1111122,1111122' 
COMPS,ioos:station:USF.COMPS:FHP:1,2016-03-01T02:24:00Z,28.1530,-82.8010,10.0,3.79,10.62,4.21,'1111122,1111122,1111122' 
COMPS,ioos:station:USF.COMPS:FHP:1,2016-03-01T02:30:00Z,28.1530,-82.8010,10.0,3.78,8.21,4.31,'1111122,1111122,1111122' 
COMPS,ioos:station:USF.COMPS:FHP:1,2016-03-01T02:36:00Z,28.1530,-82.8010,10.0,3.4,12.27,4.21,'1111122,1111122,1111122' 
COMPS,ioos:station:USF.COMPS:FHP:1,2016-03-01T02:42:00Z,28.1530,-82.8010,10.0,3.79,16.56,4.31,'1111122,1111122,1111122' 
COMPS,ioos:station:USF.COMPS:FHP:1,2016-03-01T02:48:00Z,28.1530,-82.8010,10.0,3.35,11.49,3.82,'1111122,1111122,1111122' 
COMPS,ioos:station:USF.COMPS:FHP:1,2016-03-01T02:54:00Z,28.1530,-82.8010,10.0,3.15,8.95,3.62,'1111122,1111122,1111122' 
COMPS,ioos:station:USF.COMPS:FHP:1,2016-03-01T04:00:00Z,28.1530,-82.8010,10.0,3.65,9.06,4.01,'1111122,1111122,1111122' 
COMPS,ioos:station:USF.COMPS:FHP:1,2016-03-01T04:06:00Z,28.1530,-82.8010,10.0,3.28,11.53,3.62,'1111122,1111122,1111122' 
COMPS,ioos:station:USF.COMPS:FHP:1,2016-03-01T04:12:00Z,28.1530,-82.8010,10.0,2.63,23.03,3.33,'1111122,1111122,1111122' 
COMPS,ioos:station:USF.COMPS:FHP:1,2016-03-01T04:18:00Z,28.1530,-82.8010,10.0,1.8,40.48,3.13,'1111122,1111122,1111122' 
COMPS,ioos:station:USF.COMPS:FHP:1,2016-03-01T04:24:00Z,28.1530,-82.8010,10.0,2.49,27.18,3.13,'1111122,1111122,1111122' 
COMPS,ioos:station:USF.COMPS:FHP:1,2016-03-01T04:30:00Z,28.1530,-82.8010,10.0,2.6,25.04,3.13,'1111122,1111122,1111122' 
COMPS,ioos:station:USF.COMPS:FHP:1,2016-03-01T04:36:00Z,28.1530,-82.8010,10.0,1.79,41.39,2.94,'1111122,1111122,1111122' 
COMPS,ioos:station:USF.COMPS:FHP:1,2016-03-01T04:42:00Z,28.1530,-82.8010,10.0,1.57,46.91,1.96,'1111122,1111122,1111122' 
COMPS,ioos:station:USF.COMPS:FHP:1,2016-03-01T04:48:00Z,28.1530,-82.8010,10.0,1.68,51.23,1.96,'1111122,1111122,1111122' 
COMPS,ioos:station:USF.COMPS:FHP:1,2016-03-01T04:54:00Z,28.1530,-82.8010,10.0,1.2,56.88,1.96,'1111122,1111122,1111122' 
COMPS,ioos:station:USF.COMPS:FHP:1,2016-03-01T05:00:00Z,28.1530,-82.8010,10.0,1.23,70.51,1.47,'1111122,1111122,1111122' 
COMPS,ioos:station:USF.COMPS:FHP:1,2016-03-01T05:06:00Z,28.1530,-82.8010,10.0,1.36,44.98,1.76,'1111122,1111122,1111122' 
COMPS,ioos:station:USF.COMPS:FHP:1,2016-03-01T05:12:00Z,28.1530,-82.8010,10.0,1.63,30.95,2.15,'1111122,1111122,1111122' 
COMPS,ioos:station:USF.COMPS:FHP:1,2016-03-01T05:18:00Z,28.1530,-82.8010,10.0,1.6,45.59,1.96,'1111122,1111122,1111122' 
COMPS,ioos:station:USF.COMPS:FHP:1,2016-03-01T05:24:00Z,28.1530,-82.8010,10.0,1.54,63.76,1.96,'1111122,1111122,1111122' 
COMPS,ioos:station:USF.COMPS:FHP:1,2016-03-01T05:30:00Z,28.1530,-82.8010,10.0,1.39,53.8,1.66,'1111122,1111122,1111122' 
COMPS,ioos:station:USF.COMPS:FHP:1,2016-03-01T05:36:00Z,28.1530,-82.8010,10.0,1.36,71.83,1.76,'1111122,1111122,1111122' 
COMPS,ioos:station:USF.COMPS:FHP:1,2016-03-01T05:42:00Z,28.1530,-82.8010,10.0,1.49,69.7,1.76,'1111122,1111122,1111122' 
COMPS,ioos:station:USF.COMPS:FHP:1,2016-03-01T05:48:00Z,28.1530,-82.8010,10.0,1.87,67.31,2.25,'1111122,1111122,1111122' 
COMPS,ioos:station:USF.COMPS:FHP:1,2016-03-01T05:54:00Z,28.1530,-82.8010,10.0,1.73,73.83,2.05,'1111122,1111122,1111122' 
COMPS,ioos:station:USF.COMPS:FHP:1,2016-03-01T06:00:00Z,28.1530,-82.8010,10.0,1.79,58.94,2.15,'1111122,1111122,1111122' 
COMPS,ioos:station:USF.COMPS:FHP:1,2016-03-01T06:06:00Z,28.1530,-82.8010,10.0,1.87,55.47,2.54,'1111122,1111122,1111122' 
COMPS,ioos:station:USF.COMPS:FHP:1,2016-03-01T06:12:00Z,28.1530,-82.8010,10.0,1.89,56.92,2.15,'1111122,1111122,1111122' 
COMPS,ioos:station:USF.COMPS:FHP:1,2016-03-01T06:18:00Z,28.1530,-82.8010,10.0,1.89,64.42,2.15,'1111122,1111122,1111122' 
COMPS,ioos:station:USF.COMPS:FHP:1,2016-03-01T06:24:00Z,28.1530,-82.8010,10.0,1.59,75.5,1.96,'1111122,1111122,1111122' 
COMPS,ioos:station:USF.COMPS:FHP:1,2016-03-01T06:30:00Z,28.1530,-82.8010,10.0,1.63,73.47,1.96,'1111122,1111122,1111122' 
COMPS,ioos:station:USF.COMPS:FHP:1,2016-03-01T06:36:00Z,28.1530,-82.8010,10.0,1.66,75.56,2.05,'1111122,1111122,1111122' 
COMPS,ioos:station:USF.COMPS:FHP:1,2016-03-01T06:42:00Z,28.1530,-82.8010,10.0,1.57,87.32,2.05,'1111122,1111122,1111122' 
COMPS,ioos:station:USF.COMPS:FHP:1,2016-03-01T06:48:00Z,28.1530,-82.8010,10.0,1.72,85.24,2.25,'1111122,1111122,1111122' 
COMPS,ioos:station:USF.COMPS:FHP:1,2016-03-01T06:54:00Z,28.1530,-82.8010,10.0,1.95,86.07,2.15,'1111122,1111122,1111122' 
COMPS,ioos:station:USF.COMPS:FHP:1,2016-03-01T07:00:00Z,28.1530,-82.8010,10.0,2.09,91.65,2.35,'1111122,1111122,1111122' 
COMPS,ioos:station:USF.COMPS:FHP:1,2016-03-01T07:06:00Z,28.1530,-82.8010,10.0,2.34,91.49,2.74,'1111122,1111122,1111122' 
COMPS,ioos:station:USF.COMPS:FHP:1,2016-03-01T07:12:00Z,28.1530,-82.8010,10.0,2.54,87.26,3.03,'1111122,1111122,1111122' 
COMPS,ioos:station:USF.COMPS:FHP:1,2016-03-01T07:18:00Z,28.1530,-82.8010,10.0,2.99,92.28,3.62,'1111122,1111122,1111122' 
COMPS,ioos:station:USF.COMPS:FHP:1,2016-03-01T07:24:00Z,28.1530,-82.8010,10.0,2.86,97.52,3.52,'1111122,1111122,1111122' 
COMPS,ioos:station:USF.COMPS:FHP:1,2016-03-01T07:30:00Z,28.1530,-82.8010,10.0,2.97,99.97,4.01,'1111122,1111122,1111122' 
COMPS,ioos:station:USF.COMPS:FHP:1,2016-03-01T07:36:00Z,28.1530,-82.8010,10.0,3.68,107.93,5.09,'1111122,1111122,1111122' 
COMPS,ioos:station:USF.COMPS:FHP:1,2016-03-01T07:42:00Z,28.1530,-82.8010,10.0,3.37,104.89,4.31,'1111122,1111122,1111122' 
COMPS,ioos:station:USF.COMPS:FHP:1,2016-03-01T07:48:00Z,28.1530,-82.8010,10.0,3.02,95.72,4.11,'1111122,1111122,1111122' 
COMPS,ioos:station:USF.COMPS:FHP:1,2016-03-01T07:54:00Z,28.1530,-82.8010,10.0,2.88,96.41,3.82,'1111122,1111122,1111122' 
COMPS,ioos:station:USF.COMPS:FHP:1,2016-03-01T08:00:00Z,28.1530,-82.8010,10.0,2.91,96.06,3.72,'1111122,1111122,1111122' 
COMPS,ioos:station:USF.COMPS:FHP:1,2016-03-01T08:06:00Z,28.1530,-82.8010,10.0,3.24,112.82,4.11,'1111122,1111122,1111122' 
COMPS,ioos:station:USF.COMPS:FHP:1,2016-03-01T08:12:00Z,28.1530,-82.8010,10.0,3.15,111.68,3.82,'1111122,1111122,1111122' 
COMPS,ioos:station:USF.COMPS:FHP:1,2016-03-01T08:18:00Z,28.1530,-82.8010,10.0,2.9,113.08,3.62,'1111122,1111122,1111122' 
COMPS,ioos:station:USF.COMPS:FHP:1,2016-03-01T08:24:00Z,28.1530,-82.8010,10.0,3.02,109.55,3.82,'1111122,1111122,1111122' 
COMPS,ioos:station:USF.COMPS:FHP:1,2016-03-01T08:30:00Z,28.1530,-82.8010,10.0,3.16,109.65,4.01,'1111122,1111122,1111122' 
COMPS,ioos:station:USF.COMPS:FHP:1,2016-03-01T08:36:00Z,28.1530,-82.8010,10.0,3.69,109.19,4.8,'1111122,1111122,1111122' 
COMPS,ioos:station:USF.COMPS:FHP:1,2016-03-01T08:42:00Z,28.1530,-82.8010,10.0,3.65,106.7,4.6,'1111122,1111122,1111122' 
COMPS,ioos:station:USF.COMPS:FHP:1,2016-03-01T08:48:00Z,28.1530,-82.8010,10.0,3.47,104.66,4.21,'1111122,1111122,1111122' 
COMPS,ioos:station:USF.COMPS:FHP:1,2016-03-01T08:54:00Z,28.1530,-82.8010,10.0,3.45,97.71,4.11,'1111122,1111122,1111122' 
COMPS,ioos:station:USF.COMPS:FHP:1,2016-03-01T09:00:00Z,28.1530,-82.8010,10.0,3.09,96.3,3.62,'1111122,1111122,1111122' 
COMPS,ioos:station:USF.COMPS:FHP:1,2016-03-01T09:06:00Z,28.1530,-82.8010,10.0,2.87,98.23,3.52,'1111122,1111122,1111122' 
COMPS,ioos:station:USF.COMPS:FHP:1,2016-03-01T09:12:00Z,28.1530,-82.8010,10.0,2.58,99.46,3.23,'1111122,1111122,1111122' 
COMPS,ioos:station:USF.COMPS:FHP:1,2016-03-01T09:18:00Z,28.1530,-82.8010,10.0,2.99,105.4,3.52,'1111122,1111122,1111122' 
COMPS,ioos:station:USF.COMPS:FHP:1,2016-03-01T09:24:00Z,28.1530,-82.8010,10.0,2.76,100.57,3.62,'1111122,1111122,1111122' 
COMPS,ioos:station:USF.COMPS:FHP:1,2016-03-01T09:30:00Z,28.1530,-82.8010,10.0,3.07,104.4,3.72,'1111122,1111122,1111122' 
COMPS,ioos:station:USF.COMPS:FHP:1,2016-03-01T09:36:00Z,28.1530,-82.8010,10.0,3.28,107.57,3.72,'1111122,1111122,1111122' 
COMPS,ioos:station:USF.COMPS:FHP:1,2016-03-01T09:42:00Z,28.1530,-82.8010,10.0,3.78,107.62,4.41,'1111122,1111122,1111122' 
COMPS,ioos:station:USF.COMPS:FHP:1,2016-03-01T09:48:00Z,28.1530,-82.8010,10.0,3.32,99.12,4.21,'1111122,1111122,1111122' 
COMPS,ioos:station:USF.COMPS:FHP:1,2016-03-01T09:54:00Z,28.1530,-82.8010,10.0,3.01,97.06,3.72,'1111122,1111122,1111122' 
COMPS,ioos:station:USF.COMPS:FHP:1,2016-03-01T10:00:00Z,28.1530,-82.8010,10.0,2.79,98.5,3.52,'1111122,1111122,1111122' 
COMPS,ioos:station:USF.COMPS:FHP:1,2016-03-01T10:06:00Z,28.1530,-82.8010,10.0,2.87,99.88,3.43,'1111122,1111122,1111122' 
COMPS,ioos:station:USF.COMPS:FHP:1,2016-03-01T10:12:00Z,28.1530,-82.8010,10.0,2.89,97.19,3.43,'1111122,1111122,1111122' 
COMPS,ioos:station:USF.COMPS:FHP:1,2016-03-01T10:18:00Z,28.1530,-82.8010,10.0,2.88,99.38,3.62,'1111122,1111122,1111122' 
COMPS,ioos:station:USF.COMPS:FHP:1,2016-03-01T10:24:00Z,28.1530,-82.8010,10.0,3.0,104.15,3.52,'1111122,1111122,1111122' 
COMPS,ioos:station:USF.COMPS:FHP:1,2016-03-01T10:30:00Z,28.1530,-82.8010,10.0,3.07,104.04,3.72,'1111122,1111122,1111122' 
COMPS,ioos:station:USF.COMPS:FHP:1,2016-03-01T10:36:00Z,28.1530,-82.8010,10.0,3.28,102.87,3.92,'1111122,1111122,1111122' 
COMPS,ioos:station:USF.COMPS:FHP:1,2016-03-01T10:42:00Z,28.1530,-82.8010,10.0,3.26,102.2,3.72,'1111122,1111122,1111122' 
COMPS,ioos:station:USF.COMPS:FHP:1,2016-03-01T10:48:00Z,28.1530,-82.8010,10.0,3.31,101.39,3.92,'1111122,1111122,1111122' 
COMPS,ioos:station:USF.COMPS:FHP:1,2016-03-01T10:54:00Z,28.1530,-82.8010,10.0,3.5,96.15,4.21,'1111122,1111122,1111122' 
COMPS,ioos:station:USF.COMPS:FHP:1,2016-03-01T11:00:00Z,28.1530,-82.8010,10.0,3.69,102.29,4.31,'1111122,1111122,1111122' 
COMPS,ioos:station:USF.COMPS:FHP:1,2016-03-01T11:06:00Z,28.1530,-82.8010,10.0,3.44,106.49,4.41,'1111122,1111122,1111122' 
COMPS,ioos:station:USF.COMPS:FHP:1,2016-03-01T11:12:00Z,28.1530,-82.8010,10.0,3.23,102.97,3.82,'1111122,1111122,1111122' 
COMPS,ioos:station:USF.COMPS:FHP:1,2016-03-01T11:18:00Z,28.1530,-82.8010,10.0,3.19,92.28,4.01,'1111122,1111122,1111122' 
COMPS,ioos:station:USF.COMPS:FHP:1,2016-03-01T11:24:00Z,28.1530,-82.8010,10.0,3.3,87.28,3.72,'1111122,1111122,1111122' 
COMPS,ioos:station:USF.COMPS:FHP:1,2016-03-01T11:30:00Z,28.1530,-82.8010,10.0,3.53,86.74,4.31,'1111122,1111122,1111122' 
COMPS,ioos:station:USF.COMPS:FHP:1,2016-03-01T11:36:00Z,28.1530,-82.8010,10.0,3.35,85.05,3.82,'1111122,1111122,1111122' 
COMPS,ioos:station:USF.COMPS:FHP:1,2016-03-01T11:42:00Z,28.1530,-82.8010,10.0,3.5,85.94,4.01,'1111122,1111122,1111122' 
COMPS,ioos:station:USF.COMPS:FHP:1,2016-03-01T11:48:00Z,28.1530,-82.8010,10.0,3.73,92.57,4.21,'1111122,1111122,1111122' 
COMPS,ioos:station:USF.COMPS:FHP:1,2016-03-01T11:54:00Z,28.1530,-82.8010,10.0,3.96,94.84,5.09,'1111122,1111122,1111122' 
COMPS,ioos:station:USF.COMPS:FHP:1,2016-03-01T12:00:00Z,28.1530,-82.8010,10.0,4.11,103.17,4.7,'1111122,1111122,1111122' 
COMPS,ioos:station:USF.COMPS:FHP:1,2016-03-01T12:06:00Z,28.1530,-82.8010,10.0,4.56,103.6,5.39,'1111122,1111122,1111122' 
COMPS,ioos:station:USF.COMPS:FHP:1,2016-03-01T12:12:00Z,28.1530,-82.8010,10.0,4.76,105.9,5.48,'1111122,1111122,1111122' 
COMPS,ioos:station:USF.COMPS:FHP:1,2016-03-01T12:18:00Z,28.1530,-82.8010,10.0,4.69,104.96,5.39,'1111122,1111122,1111122' 
COMPS,ioos:station:USF.COMPS:FHP:1,2016-03-01T12:24:00Z,28.1530,-82.8010,10.0,4.18,102.99,4.8,'1111122,1111122,1111122' 
COMPS,ioos:station:USF.COMPS:FHP:1,2016-03-01T12:30:00Z,28.1530,-82.8010,10.0,4.07,100.15,4.8,'1111122,1111122,1111122' 
COMPS,ioos:station:USF.COMPS:FHP:1,2016-03-01T12:36:00Z,28.1530,-82.8010,10.0,4.13,102.44,4.9,'1111122,1111122,1111122' 
COMPS,ioos:station:USF.COMPS:FHP:1,2016-03-01T12:42:00Z,28.1530,-82.8010,10.0,3.58,103.8,4.11,'1111122,1111122,1111122' 
COMPS,ioos:station:USF.COMPS:FHP:1,2016-03-01T12:48:00Z,28.1530,-82.8010,10.0,3.9,102.13,4.7,'1111122,1111122,1111122' 
COMPS,ioos:station:USF.COMPS:FHP:1,2016-03-01T12:54:00Z,28.1530,-82.8010,10.0,3.68,100.25,4.99,'1111122,1111122,1111122' 
COMPS,ioos:station:USF.COMPS:FHP:1,2016-03-01T13:00:00Z,28.1530,-82.8010,10.0,3.76,97.83,4.21,'1111122,1111122,1111122' 
COMPS,ioos:station:USF.COMPS:FHP:1,2016-03-01T13:06:00Z,28.1530,-82.8010,10.0,3.58,98.34,4.5,'1111122,1111122,1111122' 
COMPS,ioos:station:USF.COMPS:FHP:1,2016-03-01T13:12:00Z,28.1530,-82.8010,10.0,3.45,96.79,3.92,'1111122,1111122,1111122' 
COMPS,ioos:station:USF.COMPS:FHP:1,2016-03-01T13:18:00Z,28.1530,-82.8010,10.0,3.22,97.15,3.92,'1111122,1111122,1111122' 
COMPS,ioos:station:USF.COMPS:FHP:1,2016-03-01T13:24:00Z,28.1530,-82.8010,10.0,3.05,100.19,4.01,'1111122,1111122,1111122' 
COMPS,ioos:station:USF.COMPS:FHP:1,2016-03-01T13:30:00Z,28.1530,-82.8010,10.0,2.97,99.52,3.92,'1111122,1111122,1111122' 
COMPS,ioos:station:USF.COMPS:FHP:1,2016-03-01T13:36:00Z,28.1530,-82.8010,10.0,3.18,102.29,4.21,'1111122,1111122,1111122' 
COMPS,ioos:station:USF.COMPS:FHP:1,2016-03-01T13:42:00Z,28.1530,-82.8010,10.0,3.15,110.44,4.21,'1111122,1111122,1111122' 
COMPS,ioos:station:USF.COMPS:FHP:1,2016-03-01T13:48:00Z,28.1530,-82.8010,10.0,3.38,112.91,4.6,'1111122,1111122,1111122' 
COMPS,ioos:station:USF.COMPS:FHP:1,2016-03-01T13:54:00Z,28.1530,-82.8010,10.0,3.09,110.04,4.11,'1111122,1111122,1111122' 
COMPS,ioos:station:USF.COMPS:FHP:1,2016-03-01T14:00:00Z,28.1530,-82.8010,10.0,2.54,109.9,3.33,'1111122,1111122,1111122' 
COMPS,ioos:station:USF.COMPS:FHP:1,2016-03-01T14:06:00Z,28.1530,-82.8010,10.0,2.71,107.18,3.72,'1111122,1111122,1111122' 
COMPS,ioos:station:USF.COMPS:FHP:1,2016-03-01T14:12:00Z,28.1530,-82.8010,10.0,2.75,100.67,3.62,'1111122,1111122,1111122' 
COMPS,ioos:station:USF.COMPS:FHP:1,2016-03-01T14:18:00Z,28.1530,-82.8010,10.0,2.43,89.38,3.13,'1111122,1111122,1111122' 
COMPS,ioos:station:USF.COMPS:FHP:1,2016-03-01T14:24:00Z,28.1530,-82.8010,10.0,2.86,92.28,3.62,'1111122,1111122,1111122' 
COMPS,ioos:station:USF.COMPS:FHP:1,2016-03-01T14:30:00Z,28.1530,-82.8010,10.0,2.8,94.65,3.23,'1111122,1111122,1111122' 
COMPS,ioos:station:USF.COMPS:FHP:1,2016-03-01T14:36:00Z,28.1530,-82.8010,10.0,2.44,87.56,3.03,'1111122,1111122,1111122' 
COMPS,ioos:station:USF.COMPS:FHP:1,2016-03-01T14:42:00Z,28.1530,-82.8010,10.0,2.38,87.62,3.23,'1111122,1111122,1111122' 
COMPS,ioos:station:USF.COMPS:FHP:1,2016-03-01T14:48:00Z,28.1530,-82.8010,10.0,2.77,98.31,4.11,'1111122,1111122,1111122' 
COMPS,ioos:station:USF.COMPS:FHP:1,2016-03-01T14:54:00Z,28.1530,-82.8010,10.0,3.03,87.28,4.11,'1111122,1111122,1111122' 
COMPS,ioos:station:USF.COMPS:FHP:1,2016-03-01T15:00:00Z,28.1530,-82.8010,10.0,2.98,85.86,3.92,'1111122,1111122,1111122' 
COMPS,ioos:station:USF.COMPS:FHP:1,2016-03-01T15:06:00Z,28.1530,-82.8010,10.0,2.55,95.14,3.43,'1111122,1111122,1111122' 
COMPS,ioos:station:USF.COMPS:FHP:1,2016-03-01T15:12:00Z,28.1530,-82.8010,10.0,2.41,96.11,3.03,'1111122,1111122,1111122' 
COMPS,ioos:station:USF.COMPS:FHP:1,2016-03-01T15:18:00Z,28.1530,-82.8010,10.0,2.23,120.93,3.72,'1111122,1111122,1111122' 
COMPS,ioos:station:USF.COMPS:FHP:1,2016-03-01T15:24:00Z,28.1530,-82.8010,10.0,2.9,128.02,4.11,'1111122,1111122,1111122' 
COMPS,ioos:station:USF.COMPS:FHP:1,2016-03-01T15:30:00Z,28.1530,-82.8010,10.0,2.68,143.14,3.43,'1111122,1111122,1111122' 
COMPS,ioos:station:USF.COMPS:FHP:1,2016-03-01T15:36:00Z,28.1530,-82.8010,10.0,1.97,138.76,2.94,'1111122,1111122,1111122' 
COMPS,ioos:station:USF.COMPS:FHP:1,2016-03-01T15:42:00Z,28.1530,-82.8010,10.0,0.95,135.14,1.76,'1111122,1111122,1111122' 
COMPS,ioos:station:USF.COMPS:FHP:1,2016-03-01T15:48:00Z,28.1530,-82.8010,10.0,0.8,163.71,1.37,'1111122,1111122,1111122' 
COMPS,ioos:station:USF.COMPS:FHP:1,2016-03-01T15:54:00Z,28.1530,-82.8010,10.0,0.74,191.16,0.97,'1111122,1111122,1111122' 
COMPS,ioos:station:USF.COMPS:FHP:1,2016-03-01T16:00:00Z,28.1530,-82.8010,10.0,0.85,214.65,1.07,'1111122,1111122,1111122' 
COMPS,ioos:station:USF.COMPS:FHP:1,2016-03-01T16:06:00Z,28.1530,-82.8010,10.0,0.86,243.02,1.56,'1111122,1111122,1111122' 
COMPS,ioos:station:USF.COMPS:FHP:1,2016-03-01T16:12:00Z,28.1530,-82.8010,10.0,1.52,278.99,2.54,'1111122,1111122,1111122' 
COMPS,ioos:station:USF.COMPS:FHP:1,2016-03-01T16:18:00Z,28.1530,-82.8010,10.0,3.4,328.67,4.5,'1111122,1111122,1111122' 
COMPS,ioos:station:USF.COMPS:FHP:1,2016-03-01T16:24:00Z,28.1530,-82.8010,10.0,3.19,338.89,3.52,'1111122,1111122,1111122' 
COMPS,ioos:station:USF.COMPS:FHP:1,2016-03-01T16:30:00Z,28.1530,-82.8010,10.0,3.02,341.45,3.33,'1111122,1111122,1111122' 
COMPS,ioos:station:USF.COMPS:FHP:1,2016-03-01T16:36:00Z,28.1530,-82.8010,10.0,2.77,339.42,3.33,'1111122,1111122,1111122' 
COMPS,ioos:station:USF.COMPS:FHP:1,2016-03-01T16:42:00Z,28.1530,-82.8010,10.0,2.76,350.58,3.03,'1111122,1111122,1111122' 
COMPS,ioos:station:USF.COMPS:FHP:1,2016-03-01T16:48:00Z,28.1530,-82.8010,10.0,2.56,343.6,2.94,'1111122,1111122,1111122' 
COMPS,ioos:station:USF.COMPS:FHP:1,2016-03-01T16:54:00Z,28.1530,-82.8010,10.0,2.39,340.84,2.64,'1111122,1111122,1111122' 
COMPS,ioos:station:USF.COMPS:FHP:1,2016-03-01T17:00:00Z,28.1530,-82.8010,10.0,2.86,343.13,3.33,'1111122,1111122,1111122' 
COMPS,ioos:station:USF.COMPS:FHP:1,2016-03-01T17:06:00Z,28.1530,-82.8010,10.0,2.82,345.11,3.13,'1111122,1111122,1111122' 
COMPS,ioos:station:USF.COMPS:FHP:1,2016-03-01T17:12:00Z,28.1530,-82.8010,10.0,2.84,345.4,3.33,'1111122,1111122,1111122' 
COMPS,ioos:station:USF.COMPS:FHP:1,2016-03-01T17:18:00Z,28.1530,-82.8010,10.0,3.2,345.04,3.62,'1111122,1111122,1111122' 
COMPS,ioos:station:USF.COMPS:FHP:1,2016-03-01T17:24:00Z,28.1530,-82.8010,10.0,3.0,341.68,3.33,'1111122,1111122,1111122' 
COMPS,ioos:station:USF.COMPS:FHP:1,2016-03-01T17:30:00Z,28.1530,-82.8010,10.0,3.18,349.21,3.82,'1111122,1111122,1111122' 
COMPS,ioos:station:USF.COMPS:FHP:1,2016-03-01T17:36:00Z,28.1530,-82.8010,10.0,3.31,349.91,3.62,'1111122,1111122,1111122' 
COMPS,ioos:station:USF.COMPS:FHP:1,2016-03-01T17:42:00Z,28.1530,-82.8010,10.0,3.22,349.88,3.62,'1111122,1111122,1111122' 
COMPS,ioos:station:USF.COMPS:FHP:1,2016-03-01T17:48:00Z,28.1530,-82.8010,10.0,2.9,342.84,3.23,'1111122,1111122,1111122' 
COMPS,ioos:station:USF.COMPS:FHP:1,2016-03-01T17:54:00Z,28.1530,-82.8010,10.0,2.61,342.16,2.84,'1111122,1111122,1111122' 
COMPS,ioos:station:USF.COMPS:FHP:1,2016-03-01T18:00:00Z,28.1530,-82.8010,10.0,2.57,336.37,2.84,'1111122,1111122,1111122' 
COMPS,ioos:station:USF.COMPS:FHP:1,2016-03-01T18:06:00Z,28.1530,-82.8010,10.0,2.85,337.14,3.23,'1111122,1111122,1111122' 
COMPS,ioos:station:USF.COMPS:FHP:1,2016-03-01T18:12:00Z,28.1530,-82.8010,10.0,3.26,330.51,3.82,'1111122,1111122,1111122' 
COMPS,ioos:station:USF.COMPS:FHP:1,2016-03-01T18:18:00Z,28.1530,-82.8010,10.0,3.45,330.45,3.82,'1111122,1111122,1111122' 
COMPS,ioos:station:USF.COMPS:FHP:1,2016-03-01T18:24:00Z,28.1530,-82.8010,10.0,3.16,332.03,3.52,'1111122,1111122,1111122' 
COMPS,ioos:station:USF.COMPS:FHP:1,2016-03-01T18:30:00Z,28.1530,-82.8010,10.0,2.79,336.64,3.23,'1111122,1111122,1111122' 
COMPS,ioos:station:USF.COMPS:FHP:1,2016-03-01T18:36:00Z,28.1530,-82.8010,10.0,2.52,333.29,3.13,'1111122,1111122,1111122' 
COMPS,ioos:station:USF.COMPS:FHP:1,2016-03-01T18:42:00Z,28.1530,-82.8010,10.0,2.42,326.69,3.03,'1111122,1111122,1111122' 
COMPS,ioos:station:USF.COMPS:FHP:1,2016-03-01T18:48:00Z,28.1530,-82.8010,10.0,2.57,297.02,3.23,'1111122,1111122,1111122' 
COMPS,ioos:station:USF.COMPS:FHP:1,2016-03-01T18:54:00Z,28.1530,-82.8010,10.0,2.78,292.46,3.43,'1111122,1111122,1111122' 
COMPS,ioos:station:USF.COMPS:FHP:1,2016-03-01T19:00:00Z,28.1530,-82.8010,10.0,2.7,298.47,3.43,'1111122,1111122,1111122' 
COMPS,ioos:station:USF.COMPS:FHP:1,2016-03-01T19:06:00Z,28.1530,-82.8010,10.0,2.35,302.74,3.03,'1111122,1111122,1111122' 
COMPS,ioos:station:USF.COMPS:FHP:1,2016-03-01T19:12:00Z,28.1530,-82.8010,10.0,2.29,306.22,3.03,'1111122,1111122,1111122' 
COMPS,ioos:station:USF.COMPS:FHP:1,2016-03-01T19:18:00Z,28.1530,-82.8010,10.0,2.59,297.34,3.43,'1111122,1111122,1111122' 
COMPS,ioos:station:USF.COMPS:FHP:1,2016-03-01T19:24:00Z,28.1530,-82.8010,10.0,2.66,297.39,3.23,'1111122,1111122,1111122' 
COMPS,ioos:station:USF.COMPS:FHP:1,2016-03-01T19:30:00Z,28.1530,-82.8010,10.0,2.12,297.97,2.74,'1111122,1111122,1111122' 
COMPS,ioos:station:USF.COMPS:FHP:1,2016-03-01T19:36:00Z,28.1530,-82.8010,10.0,1.66,290.71,2.15,'1111122,1111122,1111122' 
COMPS,ioos:station:USF.COMPS:FHP:1,2016-03-01T19:42:00Z,28.1530,-82.8010,10.0,1.35,281.59,2.15,'1111122,1111122,1111122' 
COMPS,ioos:station:USF.COMPS:FHP:1,2016-03-01T19:48:00Z,28.1530,-82.8010,10.0,2.04,287.69,2.54,'1111122,1111122,1111122' 
COMPS,ioos:station:USF.COMPS:FHP:1,2016-03-01T19:54:00Z,28.1530,-82.8010,10.0,2.15,287.15,2.64,'1111122,1111122,1111122' 
COMPS,ioos:station:USF.COMPS:FHP:1,2016-03-02T04:00:00Z,28.1530,-82.8010,10.0,3.84,217.84,4.7,'1111122,1111122,1111122' 
COMPS,ioos:station:USF.COMPS:FHP:1,2016-03-02T04:06:00Z,28.1530,-82.8010,10.0,3.96,215.08,4.5,'1111122,1111122,1111122' 
COMPS,ioos:station:USF.COMPS:FHP:1,2016-03-02T04:12:00Z,28.1530,-82.8010,10.0,3.66,219.17,4.31,'1111122,1111122,1111122' 
COMPS,ioos:station:USF.COMPS:FHP:1,2016-03-02T04:18:00Z,28.1530,-82.8010,10.0,3.32,223.47,3.82,'1111122,1111122,1111122' 
COMPS,ioos:station:USF.COMPS:FHP:1,2016-03-02T04:24:00Z,28.1530,-82.8010,10.0,3.04,220.0,3.72,'1111122,1111122,1111122' 
COMPS,ioos:station:USF.COMPS:FHP:1,2016-03-02T04:30:00Z,28.1530,-82.8010,10.0,3.01,224.61,3.43,'1111122,1111122,1111122' 
COMPS,ioos:station:USF.COMPS:FHP:1,2016-03-02T04:36:00Z,28.1530,-82.8010,10.0,2.86,209.57,3.43,'1111122,1111122,1111122' 